Tracking 30923 objects as of 1-Jul-2025
HD Live streaming from Space Station
objects crossing your sky now

HULIANWANG DIGUI-09

Track HULIANWANG DIGUI-09 now!
10-day predictions


NORAD ID: 62331
Int'l Code: 2024-240J
Perigee: 1,173.3 km
Apogee: 1,176.8 km
Inclination: 86.5 °
Period: 108.7 minutes
Semi major axis: 7546 km
RCS: Unknown
Launch date: December 16, 2024
Source: People's Republic of China (PRC)
Launch site: Wenchang Satellite Launch Center (WSC)
Your satellite tracking list
Your tracking list is empty




NASA's NSSDC Master Catalog

Two Line Element Set (TLE):
1 62331U 24240J   25181.87388444  .00000079  00000-0  15036-3 0  9994
2 62331  86.4977 101.8314 0002276  77.9515 282.1874 13.24414953 26137
Source of the keplerian elements: AFSPC